{"data":{"norad_id":66905,"epoch":"2026-05-25T01:45:14.855904Z","epoch_age_seconds":68632,"freshness":"FRESH","line1":"1 66905U 25283AD  26145.07308861  .00031694  00000+0  10776-2 0  9992","line2":"2 66905  53.1612  29.7370 0001072  78.7258 281.3864 15.30201298 27531","mean_motion":15.30201298,"eccentricity":0.0001072,"inclination_deg":53.1612,"raan_deg":29.737,"arg_perigee_deg":78.7258,"mean_anomaly_deg":281.3864,"bstar":0.0010776,"rev_number":2753,"period_min":94.105265881169,"perigee_km":474.47651490165,"apogee_km":475.94587275441,"semimajor_km":6853.348193828,"source":"CELESTRAK","updated_at":"2026-05-25T13:38:21.384025Z"}}